EW4784 Weather Reports


time (UTC)temp
C
wind
direction
speed
KPH
gust
KPH
rain 1hr
cm
rain 24hr
cm
rain mn
cm
humidity
%
barometer
mb
20260508213840 18 255 14.5 27.4 0.00 0.10 0.08 33
20260508213340 17 208 17.7 30.6 0.00 0.10 0.08 33
20260508212838 17 248 12.9 40.2 0.00 0.10 0.08 34
20260508212337 17 203 12.9 38.6 0.00 0.10 0.08 34
20260508211836 17 217 8.0 20.9 0.00 0.10 0.08 35
20260508211335 17 250 14.5 33.8 0.00 0.10 0.08 34
20260508210834 17 241 14.5 32.2 0.00 0.10 0.08 34
20260508210333 18 226 14.5 33.8 0.00 0.10 0.08 33
20260508205832 18 251 4.8 12.9 0.00 0.10 0.08 34
20260508205353 18 282 8.0 25.7 0.00 0.10 0.08 34
20260508204831 18 312 11.3 25.7 0.00 0.10 0.08 35
20260508204350 18 298 19.3 38.6 0.00 0.10 0.08 33
20260508203828 18 284 17.7 38.6 0.00 0.10 0.08 34
20260508203328 18 276 12.9 24.1 0.00 0.10 0.08 35
20260508202826 18 323 19.3 40.2 0.00 0.10 0.08 35
20260508202346 17 204 11.3 25.7 0.00 0.10 0.08 36
20260508201845 17 238 12.9 29.0 0.00 0.10 0.08 36
20260508201323 17 263 12.9 20.9 0.00 0.10 0.08 34
20260508200822 18 277 16.1 27.4 0.00 0.10 0.08 35
20260508200342 18 250 19.3 43.5 0.00 0.10 0.08 35
20260508195842 18 247 12.9 32.2 0.00 0.10 0.08 35
20260508195319 17 206 12.9 25.7 0.00 0.10 0.08 35
20260508194818 17 209 14.5 32.2 0.00 0.10 0.08 34
20260508194317 18 332 16.1 35.4 0.00 0.10 0.08 33
20260508193816 18 304 19.3 37.0 0.00 0.10 0.08 32
20260508193315 18 255 14.5 45.1 0.00 0.10 0.08 32
20260508192835 18 311 16.1 32.2 0.00 0.10 0.08 32
20260508192313 17 302 12.9 30.6 0.00 0.10 0.08 32
20260508191833 17 204 14.5 30.6 0.00 0.10 0.08 33
20260508191332 17 237 11.3 40.2 0.00 0.10 0.08 33
20260508190810 18 136 9.7 25.7 0.00 0.10 0.08 33
20260508190309 17 240 6.4 16.1 0.00 0.10 0.08 33
20260508185808 18 316 14.5 27.4 0.00 0.10 0.08 32
20260508185307 18 325 20.9 43.5 0.00 0.10 0.08 34
20260508184806 17 311 12.9 29.0 0.00 0.10 0.08 35
20260508184305 17 154 4.8 12.9 0.00 0.10 0.08 35
20260508183804 17 212 9.7 20.9 0.00 0.10 0.08 34
20260508183303 17 233 12.9 35.4 0.00 0.10 0.08 33
20260508182802 18 208 9.7 22.5 0.00 0.10 0.08 33
20260508182301 18 341 16.1 29.0 0.00 0.10 0.08 33
20260508181800 17 346 8.0 16.1 0.00 0.10 0.08 34
20260508181259 17 173 9.7 20.9 0.00 0.10 0.08 34
20260508180758 17 217 11.3 22.5 0.00 0.10 0.08 32
20260508180257 17 296 8.0 16.1 0.00 0.10 0.08 34
20260508175756 17 239 8.0 25.7 0.00 0.10 0.08 33
20260508175255 17 255 16.1 33.8 0.00 0.10 0.08 35
20260508174754 17 254 12.9 30.6 0.00 0.10 0.08 35
20260508174253 17 263 12.9 30.6 0.00 0.10 0.08 33
20260508173813 17 346 17.7 30.6 0.00 0.10 0.08 35
20260508173251 17 256 12.9 20.9 0.00 0.10 0.08 34
20260508172749 17 305 8.0 20.9 0.00 0.10 0.08 36
20260508172310 17 338 11.3 27.4 0.00 0.10 0.08 37
20260508171748 17 280 11.3 22.5 0.00 0.10 0.08 37
20260508171247 17 296 14.5 32.2 0.00 0.10 0.08 35
20260508170746 16 230 9.7 22.5 0.00 0.10 0.08 39
20260508170245 16 245 4.8 12.9 0.00 0.10 0.08 38
20260508165805 16 243 11.3 29.0 0.00 0.10 0.08 38
20260508165243 16 326 19.3 43.5 0.00 0.10 0.08 37
20260508164742 16 279 9.7 30.6 0.00 0.10 0.08 39
20260508164303 16 261 9.7 19.3 0.00 0.10 0.08 39
20260508163740 16 290 14.5 27.4 0.00 0.10 0.08 39
20260508163239 16 273 14.5 32.2 0.00 0.10 0.08 38
20260508162759 16 336 14.5 38.6 0.00 0.10 0.08 39
20260508162237 15 294 11.3 24.1 0.00 0.10 0.08 39
20260508161736 15 265 11.3 22.5 0.00 0.10 0.08 40
20260508161256 15 216 14.5 24.1 0.00 0.10 0.08 42
20260508160754 15 225 16.1 29.0 0.00 0.10 0.08 41
20260508160233 15 344 9.7 20.9 0.00 0.10 0.08 42
20260508155732 15 308 11.3 19.3 0.00 0.10 0.08 41
20260508155231 15 324 9.7 20.9 0.00 0.10 0.08 42
20260508154729 15 271 8.0 17.7 0.00 0.10 0.08 43
20260508154229 15 319 11.3 20.9 0.00 0.10 0.08 42
20260508153728 15 358 11.3 22.5 0.00 0.10 0.08 46
20260508153227 15 355 6.4 16.1 0.00 0.10 0.08 46
20260508152726 14 336 8.0 17.7 0.00 0.10 0.08 45
20260508152225 15 332 11.3 16.1 0.00 0.10 0.08 46
20260508151723 15 268 6.4 12.9 0.00 0.10 0.08 47
20260508151222 15 7 4.8 11.3 0.00 0.10 0.08 49
20260508150722 14 164 4.8 9.7 0.00 0.10 0.08 50
20260508150220 13 184 11.3 22.5 0.00 0.10 0.08 48
20260508145720 13 198 6.4 14.5 0.00 0.10 0.08 51
20260508145218 13 220 3.2 9.7 0.00 0.10 0.08 51
20260508144717 12 335 6.4 16.1 0.00 0.10 0.08 49
20260508144217 12 357 3.2 16.1 0.00 0.10 0.08 54
20260508143716 12 1 3.2 14.5 0.00 0.10 0.08 55
20260508143215 12 317 9.7 14.5 0.00 0.10 0.08 55
20260508142713 12 283 1.6 9.7 0.00 0.10 0.08 58
20260508142213 12 14 3.2 9.7 0.00 0.10 0.08 61
20260508141711 12 72 1.6 8.0 0.00 0.10 0.08 65
20260508141211 11 172 3.2 9.7 0.00 0.10 0.08 62
20260508140709 11 242 1.6 9.7 0.00 0.10 0.08 61
20260508140209 11 233 1.6 8.0 0.00 0.10 0.08 63
20260508135708 11 197 4.8 9.7 0.00 0.10 0.08 67
20260508135206 11 182 3.2 11.3 0.00 0.10 0.08 68
20260508134705 10 180 4.8 14.5 0.00 0.10 0.08 69
20260508134204 10 171 1.6 11.3 0.00 0.10 0.08 69
20260508133704 10 169 4.8 9.7 0.00 0.10 0.08 71
20260508133202 10 166 3.2 9.7 0.00 0.10 0.08 73
20260508132701 10 153 6.4 11.3 0.00 0.10 0.08 73
20260508132221 10 180 3.2 12.9 0.00 0.10 0.08 77
20260508131659 9 195 4.8 11.3 0.00 0.10 0.08 76
20260508131219 9 203 3.2 9.7 0.00 0.10 0.08 77
20260508130657 9 153 3.2 9.7 0.00 0.10 0.08 77
20260508130217 8 161 4.8 11.3 0.00 0.10 0.08 78
20260508125717 8 174 3.2 9.7 0.00 0.10 0.08 79
20260508125154 8 168 3.2 9.7 0.00 0.10 0.08 80
20260508124653 8 184 4.8 12.9 0.00 0.10 0.08 81
20260508124152 8 187 3.2 9.7 0.00 0.10 0.08 84
20260508123651 7 174 1.6 8.0 0.00 0.10 0.08 84
20260508123150 7 186 1.6 8.0 0.00 0.10 0.08 86
20260508122649 6 172 3.2 9.7 0.00 0.10 0.08 88
20260508122148 6 176 3.2 11.3 0.00 0.10 0.08 88
20260508121647 6 162 3.2 11.3 0.00 0.10 0.08 90
20260508121146 6 168 1.6 8.0 0.00 0.10 0.08 92
20260508120645 5 164 4.8 9.7 0.00 0.10 0.08 94
20260508120144 5 157 1.6 11.3 0.00 0.10 0.08 95
20260508115644 5 160 0.0 4.8 0.00 0.10 0.08 96
20260508115142 5 165 1.6 8.0 0.00 0.10 0.08 97
20260508114702 5 181 0.0 0.0 0.00 0.10 0.08 98
20260508114141 5 199 0.0 0.0 0.00 0.10 0.08 98
20260508113639 5 171 0.0 0.0 0.00 0.10 0.08 98
20260508113159 4 171 0.0 0.0 0.00 0.10 0.08 98
20260508112637 3 171 0.0 0.0 0.00 0.10 0.08 98
20260508112157 3 171 0.0 0.0 0.00 0.10 0.08 98
20260508111656 3 171 0.0 0.0 0.00 0.10 0.08 98
20260508111134 3 171 0.0 0.0 0.00 0.10 0.08 98
20260508110633 3 171 0.0 0.0 0.00 0.10 0.08 98
20260508110153 3 171 0.0 0.0 0.00 0.10 0.08 98
20260508105631 3 171 0.0 0.0 0.00 0.10 0.08 98
20260508105130 3 171 0.0 0.0 0.00 0.10 0.08 98
20260508104629 3 171 0.0 0.0 0.00 0.10 0.08 98
20260508104128 3 163 0.0 0.0 0.00 0.10 0.08 98
20260508103627 3 163 0.0 0.0 0.00 0.10 0.08 98
20260508103126 3 163 0.0 0.0 0.00 0.10 0.08 98
20260508102625 3 163 0.0 0.0 0.00 0.10 0.08 98
20260508102124 3 163 0.0 0.0 0.00 0.10 0.08 98
20260508101623 3 163 0.0 0.0 0.00 0.10 0.08 98
20260508101143 3 163 0.0 0.0 0.00 0.10 0.08 98
20260508100621 3 163 0.0 0.0 0.00 0.10 0.08 98
20260508100141 3 163 0.0 0.0 0.00 0.10 0.08 98
20260508095619 3 163 0.0 0.0 0.00 0.10 0.08 98
20260508095118 3 163 0.0 0.0 0.00 0.10 0.08 98
20260508094617 3 163 0.0 0.0 0.00 0.10 0.08 98
20260508094116 3 163 0.0 0.0 0.00 0.10 0.08 98
20260508093636 3 163 0.0 0.0 0.00 0.10 0.08 98
20260508093114 3 163 0.0 0.0 0.00 0.10 0.08 98
20260508092613 3 163 0.0 0.0 0.00 0.10 0.08 98
20260508092112 3 163 0.0 0.0 0.00 0.10 0.08 98
20260508091611 3 163 0.0 0.0 0.00 0.10 0.08 97
20260508091110 4 163 0.0 0.0 0.00 0.10 0.08 97
20260508090608 4 163 0.0 0.0 0.00 0.10 0.08 98
20260508090108 4 163 0.0 0.0 0.00 0.10 0.08 98
20260508085607 4 163 0.0 0.0 0.00 0.10 0.08 98
20260508085106 5 163 0.0 0.0 0.00 0.10 0.08 97
20260508084626 5 163 0.0 0.0 0.00 0.10 0.08 97
20260508084104 5 163 0.0 0.0 0.00 0.10 0.08 97
20260508083603 5 163 0.0 0.0 0.00 0.10 0.08 97
20260508083102 5 163 0.0 0.0 0.00 0.10 0.08 98
20260508082601 5 239 0.0 0.0 0.00 0.10 0.08 97
20260508082100 5 0 0.0 0.0 0.00 0.10 0.08 97
20260508081559 5 0 0.0 0.0 0.00 0.10 0.08 97
20260508081058 5 0 0.0 0.0 0.00 0.10 0.08 97
20260508080557 5 0 0.0 0.0 0.00 0.10 0.08 97
20260508080056 5 0 0.0 0.0 0.00 0.10 0.08 97
20260508075616 5 0 0.0 0.0 0.00 0.10 0.08 97
20260508075115 5 0 0.0 0.0 0.00 0.10 0.08 97
20260508074553 5 0 0.0 0.0 0.00 0.10 0.08 97
20260508074051 5 0 0.0 0.0 0.00 0.10 0.08 97
20260508073612 5 0 0.0 0.0 0.00 0.10 0.08 97
20260508073049 5 0 0.0 0.0 0.00 0.10 0.08 97
20260508072549 5 0 0.0 0.0 0.00 0.10 0.08 97
20260508072048 5 0 0.0 0.0 0.00 0.10 0.08 97
20260508071547 5 0 0.0 0.0 0.00 0.10 0.08 97
20260508071046 5 0 0.0 0.0 0.00 0.10 0.08 97
20260508070545 5 0 0.0 0.0 0.00 0.10 0.08 97
20260508070044 5 0 0.0 0.0 0.00 0.10 0.08 97
20260508065542 5 0 0.0 0.0 0.00 0.10 0.08 97
20260508065103 5 0 0.0 0.0 0.00 0.10 0.08 97
20260508064541 5 2 0.0 0.0 0.00 0.10 0.08 97
20260508064040 5 2 0.0 0.0 0.00 0.10 0.08 97
20260508063600 5 2 0.0 0.0 0.00 0.10 0.08 97
20260508063038 5 2 0.0 0.0 0.00 0.10 0.08 96
20260508062537 5 2 0.0 0.0 0.00 0.10 0.08 96
20260508062056 5 2 0.0 0.0 0.00 0.10 0.08 96
20260508061535 5 2 0.0 0.0 0.00 0.10 0.08 96
20260508061033 5 2 0.0 0.0 0.00 0.10 0.08 96
20260508060533 5 2 0.0 0.0 0.00 0.10 0.08 96
20260508060031 5 2 0.0 0.0 0.00 0.10 0.08 96
20260508055530 5 2 0.0 0.0 0.00 0.10 0.08 96
20260508055030 5 2 0.0 0.0 0.00 0.10 0.08 96
20260508054529 5 2 0.0 0.0 0.00 0.10 0.08 96
20260508054027 5 4 0.0 0.0 0.00 0.10 0.08 95
20260508053526 5 100 0.0 0.0 0.00 0.10 0.08 95
20260508053026 5 169 0.0 0.0 0.03 0.10 0.08 95
20260508052525 5 169 0.0 0.0 0.03 0.10 0.08 95
20260508052023 5 169 0.0 0.0 0.03 0.10 0.08 95
20260508051522 5 169 0.0 0.0 0.03 0.10 0.08 94
20260508051021 5 170 0.0 0.0 0.03 0.10 0.08 94
20260508050541 5 179 0.0 0.0 0.05 0.10 0.08 94
20260508050019 5 160 0.0 1.6 0.08 0.10 0.08 94
20260508045518 5 140 0.0 0.0 0.10 0.10 0.08 93
20260508045017 6 140 0.0 0.0 0.10 0.10 0.08 93
20260508044516 6 140 0.0 0.0 0.10 0.10 0.08 93
20260508044036 5 140 0.0 0.0 0.10 0.10 0.08 92
20260508043514 5 140 0.0 0.0 0.10 0.10 0.08 92
20260508043013 5 140 0.0 0.0 0.08 0.08 0.05 91
20260508042512 6 143 0.0 3.2 0.08 0.08 0.05 89
20260508042032 6 167 0.0 6.4 0.08 0.08 0.05 88
20260508041510 6 317 3.2 12.9 0.08 0.08 0.05 86
20260508041031 6 313 3.2 11.3 0.08 0.08 0.05 84
20260508040508 6 340 8.0 22.5 0.05 0.05 0.03 81
20260508040007 7 6 17.7 35.4 0.03 0.03 0.03 77
20260508035506 7 6 24.1 41.8 0.00 0.00 0.00 73
20260508035005 8 0 6.4 11.3 0.00 0.00 0.00 71
20260508034504 8 354 3.2 4.8 0.00 0.00 0.00 67
20260508034003 8 333 3.2 4.8 0.00 0.00 0.00 64
20260508033502 8 221 0.0 0.0 0.00 0.00 0.00 62
20260508033001 8 221 0.0 0.0 0.00 0.00 0.00 62
20260508032500 8 221 0.0 0.0 0.00 0.00 0.00 60
20260508032020 8 221 0.0 0.0 0.00 0.00 0.00 59
20260508031458 8 221 0.0 0.0 0.00 0.00 0.00 58
20260508030957 8 221 0.0 0.0 0.00 0.00 0.00 58
20260508030456 9 221 0.0 0.0 0.00 0.00 0.00 57
20260508030026 9 209 3.2 9.7 0.00 0.00 0.00 56
20260508025955 9 209 3.2 9.7 0.00 0.00 0.00 56
20260508025454 9 230 1.6 6.4 0.00 0.00 0.00 55
20260508024954 9 340 1.6 8.0 0.00 0.00 0.00 54
20260508024452 9 340 3.2 11.3 0.00 0.00 0.00 54
20260508023951 9 359 9.7 17.7 0.00 0.00 0.00 56
20260508023450 9 326 8.0 19.3 0.00 0.00 0.00 54
20260508022949 9 301 1.6 9.7 0.00 0.00 0.00 53
20260508022448 9 256 3.2 9.7 0.00 0.00 0.00 54
20260508021947 9 285 3.2 12.9 0.00 0.00 0.00 55
20260508021446 9 349 1.6 8.0 0.00 0.00 0.00 56
20260508020945 9 358 8.0 16.1 0.00 0.00 0.00 56
20260508020505 9 346 8.0 24.1 0.00 0.00 0.00 54
20260508015943 9 355 1.6 8.0 0.00 0.00 0.00 56
20260508015442 9 344 1.6 6.4 0.00 0.00 0.00 55
20260508014941 9 329 0.0 3.2 0.00 0.00 0.00 57
20260508014440 9 297 0.0 4.8 0.00 0.00 0.00 56
20260508013939 9 280 0.0 0.0 0.00 0.00 0.00 55
20260508013438 9 281 0.0 6.4 0.00 0.00 0.00 54
20260508012937 9 273 0.0 3.2 0.00 0.00 0.00 54
20260508012436 9 272 1.6 9.7 0.00 0.00 0.00 54
20260508011935 9 263 0.0 4.8 0.00 0.00 0.00 54
20260508011434 9 277 0.0 3.2 0.00 0.00 0.00 55
20260508010933 9 285 0.0 8.0 0.00 0.00 0.00 54
20260508010453 9 253 1.6 8.0 0.00 0.00 0.00 53
20260508005931 9 263 1.6 8.0 0.00 0.00 0.00 54
20260508005429 9 279 6.4 19.3 0.00 0.00 0.00 54
20260508004929 9 285 8.0 20.9 0.00 0.00 0.00 54
20260508004449 10 301 12.9 27.4 0.00 0.00 0.00 52
20260508003927 10 281 12.9 37.0 0.00 0.00 0.00 46
20260508003426 10 311 11.3 25.7 0.00 0.00 0.00 46
20260508002925 10 320 8.0 19.3 0.00 0.00 0.00 48
20260508002424 10 346 9.7 30.6 0.00 0.00 0.00 47
20260508001944 11 350 4.8 12.9 0.00 0.00 0.00 47
20260508001422 11 357 8.0 19.3 0.00 0.00 0.00 46
20260508000920 11 340 11.3 27.4 0.00 0.00 0.00 45
20260508000420 11 344 9.7 20.9 0.00 0.00 0.00 46
20260507235918 11 309 14.5 35.4 0.00 0.00 0.00 45
20260507235418 11 328 14.5 38.6 0.00 0.00 0.00 42
20260507234917 11 308 20.9 40.2 0.00 0.00 0.00 43
20260507234416 11 318 14.5 35.4 0.00 0.00 0.00 43
20260507233935 11 327 12.9 35.4 0.00 0.00 0.00 43
20260507233435 11 303 16.1 38.6 0.00 0.00 0.00 42
20260507232912 11 314 19.3 41.8 0.00 0.00 0.00 43
20260507232433 11 309 14.5 38.6 0.00 0.00 0.00 42
20260507231911 11 305 12.9 27.4 0.00 0.00 0.00 42
20260507231410 11 307 14.5 33.8 0.00 0.00 0.00 41
20260507230909 11 311 20.9 43.5 0.00 0.00 0.00 42
20260507230407 12 314 20.9 35.4 0.00 0.00 0.00 40
20260507225907 12 315 24.1 48.3 0.00 0.00 0.00 39
20260507225405 13 334 22.5 41.8 0.00 0.00 0.00 38
20260507224904 13 319 17.7 45.1 0.00 0.00 0.00 38
20260507224404 13 307 20.9 35.4 0.00 0.00 0.00 39
20260507223902 13 313 17.7 32.2 0.00 0.00 0.00 41
20260507223402 13 346 14.5 30.6 0.00 0.00 0.00 40
20260507222901 14 324 19.3 38.6 0.00 0.00 0.00 38
20260507222359 13 313 27.4 59.5 0.00 0.00 0.00 38
20260507221858 12 317 24.1 57.9 0.00 0.00 0.00 42
20260507221419 12 325 12.9 40.2 0.00 0.00 0.00 41
20260507220918 12 309 25.7 51.5 0.00 0.00 0.00 40
20260507220355 13 331 27.4 57.9 0.00 0.00 0.00 40
20260507215915 14 338 22.5 45.1 0.00 0.00 0.00 38
20260507215353 13 322 32.2 56.3 0.00 0.00 0.00 40
20260507214852 13 311 27.4 53.1 0.00 0.00 0.00 38
20260507214351 13 306 27.4 56.3 0.00 0.00 0.00 37